Location: Voyageurs National Park
(48.5020°N, 92.9292°W)
Time: 01:25:08
(UTC-05:00)

Amateur Radio Satellites - All Passes

Search period start: 22 September 2017 00:55
Search period end: 23 September 2017 00:55
Location: Voyageurs National Park, 48.5020°N, 92.9292°W

Satellite Date Start Highest point End Downlink Frequencies (MHz)
Time Altitude Azimuth
SPROUT 22 Sep 00:57:50 01:02:02 61° 259° (W) 01:06:16 437.525
QB50P2 22 Sep 00:59:26 01:03:40 57° 101° (E) 01:07:54 145.880/145.840
PRISM 22 Sep 01:05:33 01:08:05 16° 300° (WNW) 01:10:36 437.425
UNISAT 6 22 Sep 01:06:36 01:08:31 12° 304° (NW) 01:10:26 437.425
BUGSAT 1 22 Sep 01:15:23 01:18:20 18° 92° (E) 01:21:17 437.445
M-CUBED/EXP-1 PRIME 22 Sep 01:20:46 01:22:59 16° 98° (E) 01:25:08 437.505
50 SAT 22 Sep 01:21:41 01:24:58 63° 74° (ENE) 01:28:16 437.505
ISS 22 Sep 01:33:37 01:36:50 46° 3° (N) 01:40:02 437.550
NANOSAT C BR1 22 Sep 01:37:01 01:41:17 73° 286° (WNW) 01:45:32 145.865
Gurwin Techsat 1B 22 Sep 01:42:53 01:45:30 14° 86° (E) 01:48:07 435.225
UKube-1 22 Sep 01:55:20 01:59:38 77° 73° (ENE) 02:03:57 .
DX 1 22 Sep 01:58:07 02:02:26 68° 257° (WSW) 02:06:47 434.975-435.025
YUBILEINY 22 Sep 02:00:01 02:07:02 28° 280° (W) 02:14:03 435.215
Tancredo 1 22 Sep 02:00:43 02:03:26 67° 205° (SSW) 02:06:07 437.200
BEESAT 22 Sep 02:02:06 02:05:02 17° 57° (ENE) 02:08:00 436.000
DUCHIFAT 1 22 Sep 02:06:49 02:10:50 41° 291° (WNW) 02:14:50 145.980
Oscar 19 22 Sep 02:12:25 02:17:07 34° 96° (E) 02:21:47 437.125/150
nSIGHT-1 22 Sep 02:17:05 02:20:18 57° 13° (NNE) 02:23:32 .
POLYITAN 1 22 Sep 02:17:49 02:21:28 27° 295° (WNW) 02:25:06 437.675
VELOX 1 22 Sep 02:21:51 02:24:04 14° 271° (W) 02:26:19 145.980
EO-79 22 Sep 02:22:49 02:26:18 25° 296° (WNW) 02:29:46 145.935-145.965
QB50P2 22 Sep 02:36:09 02:39:03 18° 299° (WNW) 02:41:58 145.880/145.840
PCSat 22 Sep 02:39:44 02:40:18 10° 259° (W) 02:40:52 145.827
O/OREOS (USA 219) 22 Sep 02:42:43 02:46:19 24° 103° (ESE) 02:49:57 437.305
MOZHAYETS 4 22 Sep 02:49:12 02:53:25 36° 67° (ENE) 02:57:39
BUGSAT 1 22 Sep 02:49:54 02:53:57 49° 289° (WNW) 02:58:02 437.445
M-CUBED/EXP-1 PRIME 22 Sep 02:54:29 02:57:38 35° 297° (WNW) 03:00:39 437.505
ITUPSAT 1 22 Sep 02:59:40 03:04:14 47° 68° (ENE) 03:08:51 437.325
ISS 22 Sep 03:10:11 03:13:30 87° 211° (SSW) 03:16:48 437.550
CUBESAT XI-V 22 Sep 03:11:56 03:14:52 17° 58° (ENE) 03:17:47 437.345
NANOSAT C BR1 22 Sep 03:15:49 03:16:12 10° 305° (NW) 03:16:36 145.865
BEESAT 3 22 Sep 03:20:37 03:23:17 17° 30° (NNE) 03:25:56 437.485
Gurwin Techsat 1B 22 Sep 03:20:52 03:26:14 87° 104° (ESE) 03:31:33 435.225
BEESAT 2 22 Sep 03:24:02 03:25:15 11° 19° (NNE) 03:26:28 435.950
UKube-1 22 Sep 03:34:21 03:36:12 12° 272° (W) 03:38:02 .
Tancredo 1 22 Sep 03:36:39 03:37:31 11° 223° (SW) 03:38:23 437.200
BEESAT 22 Sep 03:37:28 03:42:13 79° 256° (WSW) 03:47:02 436.000
AO-7 22 Sep 03:49:59 03:57:06 30° 94° (E) 04:04:09 .
Oscar 19 22 Sep 03:51:43 03:56:29 38° 295° (WNW) 04:01:12 437.125/150
nSIGHT-1 22 Sep 03:53:29 03:56:37 42° 211° (SSW) 03:59:43 .
AO-85 22 Sep 04:12:24 04:15:40 21° 33° (NNE) 04:19:06 145.980
RS-15 22 Sep 04:14:34 04:21:36 18° 94° (E) 04:28:37 29.354- 29.394
O/OREOS (USA 219) 22 Sep 04:21:09 04:25:28 44° 303° (WNW) 04:29:52 437.305
MOZHAYETS 4 22 Sep 04:26:33 04:30:36 30° 265° (W) 04:34:42
ITUPSAT 1 22 Sep 04:38:27 04:42:17 24° 267° (W) 04:46:10 437.325
CUBESAT XI-V 22 Sep 04:46:57 04:51:40 76° 258° (WSW) 04:56:24 437.345
ISS 22 Sep 04:47:12 04:49:38 19° 221° (SW) 04:52:03 437.550
ITAMSAT 1 22 Sep 04:51:59 04:57:11 65° 102° (ESE) 05:02:21 435.822/435.867
BEESAT 3 22 Sep 04:57:28 05:01:30 78° 50° (NE) 05:05:27 437.485
KKS-1 22 Sep 04:59:19 05:03:40 59° 71° (ENE) 05:08:02 437.445
BEESAT 2 22 Sep 05:00:25 05:04:10 34° 42° (NE) 05:07:53 435.950
Gurwin Techsat 1B 22 Sep 05:02:06 05:05:30 17° 305° (NW) 05:08:52 435.225
BEESAT 22 Sep 05:19:56 05:20:48 10° 274° (W) 05:21:40 436.000
STARS 22 Sep 05:28:59 05:33:12 51° 70° (ENE) 05:37:26 437.465
AO-7 22 Sep 05:42:16 05:50:32 72° 295° (WNW) 05:58:45 .
DOVE 4 22 Sep 05:48:11 05:51:39 24° 94° (E) 05:55:12 437.250
AO-85 22 Sep 05:52:12 05:56:34 85° 233° (SW) 06:01:17 145.980
RS-15 22 Sep 06:19:30 06:31:32 65° 118° (ESE) 06:43:34 29.354- 29.394
KAITUO 1B 22 Sep 06:19:37 06:20:11 10° 87° (E) 06:20:45 145.475/437.950
CUTE-I 22 Sep 06:27:58 06:31:41 19° 90° (E) 06:35:25 437.470
ITAMSAT 1 22 Sep 06:32:17 06:36:12 22° 301° (WNW) 06:40:07 435.822/435.867
BEESAT 3 22 Sep 06:36:36 06:38:29 13° 250° (WSW) 06:40:21 437.485
KKS-1 22 Sep 06:37:45 06:40:37 17° 270° (W) 06:43:29 437.445
BEESAT 2 22 Sep 06:38:13 06:41:54 34° 241° (WSW) 06:45:33 435.950
XW-2D 22 Sep 06:42:36 06:45:52 26° 95° (E) 06:49:04 145.860 - 145.880
XW-2B 22 Sep 06:54:43 06:58:14 33° 96° (E) 07:01:42 145.730 - 145.750
XW-2F 22 Sep 06:56:11 06:59:40 33° 96° (E) 07:03:05 145.980 - 146.000
HO-68 22 Sep 06:59:28 07:03:57 17° 86° (E) 07:08:25 435.675
STARS 22 Sep 07:06:44 07:09:50 19° 268° (W) 07:12:57 437.465
STRAND 1 22 Sep 07:11:02 07:15:56 51° 69° (ENE) 07:20:54 437.568
CUTE 1.7 + AOD 2 22 Sep 07:12:55 07:14:54 13° 88° (E) 07:16:51 437.475
XW-2C 22 Sep 07:15:47 07:19:36 59° 101° (E) 07:23:20 145.795 - 145.815
CUBEBUG 2 22 Sep 07:24:23 07:25:56 11° 86° (E) 07:27:31 437.445
NUDT-PHONESAT 22 Sep 07:25:12 07:28:54 54° 100° (E) 07:32:33 437.300
DOVE 4 22 Sep 07:25:37 07:29:27 36° 291° (WNW) 07:33:24 437.250
LilacSat-2 22 Sep 07:25:56 07:29:49 83° 101° (E) 07:33:39 437.200
AO-85 22 Sep 07:34:23 07:36:25 13° 249° (WSW) 07:38:31 145.980
AO-7 22 Sep 07:36:07 07:42:00 22° 317° (NW) 07:47:52 .
KAITUO 1B 22 Sep 07:50:54 07:54:40 73° 285° (WNW) 07:58:23 145.475/437.950
CUTE-I 22 Sep 08:06:57 08:12:16 70° 288° (WNW) 08:17:34 437.470
XW-2A 22 Sep 08:07:05 08:09:28 17° 92° (E) 08:11:49 145.665 - 145.685
XW-2D 22 Sep 08:16:41 08:20:01 29° 292° (WNW) 08:23:19 145.860 - 145.880
SEEDS 22 Sep 08:22:21 08:26:20 40° 98° (E) 08:30:16 437.485
FO-29 22 Sep 08:22:44 08:27:35 31° 64° (ENE) 08:32:10 435.910
AO-73 22 Sep 08:24:07 08:26:23 13° 87° (E) 08:28:38 145.935
ZACube-1 22 Sep 08:25:31 08:28:17 16° 88° (E) 08:31:01 437.345
XW-2B 22 Sep 08:29:12 08:32:15 23° 295° (WNW) 08:35:16 145.730 - 145.750
XW-2F 22 Sep 08:30:35 08:33:37 23° 295° (WNW) 08:36:38 145.980 - 146.000
RS-15 22 Sep 08:32:28 08:44:33 56° 324° (NW) 08:56:33 29.354- 29.394
HO-68 22 Sep 08:45:32 08:52:47 81° 105° (ESE) 09:00:00 435.675
CUTE 1.7 + AOD 2 22 Sep 08:46:59 08:51:14 72° 286° (WNW) 08:55:26 437.475
AAUSAT CUBESAT 2 22 Sep 08:50:14 08:54:05 37° 97° (E) 08:57:53 437.432
XW-2C 22 Sep 08:51:12 08:53:20 15° 299° (WNW) 08:55:27 145.795 - 145.815
STRAND 1 22 Sep 08:51:17 08:55:24 24° 267° (W) 08:59:33 437.568
UNISAT 6 22 Sep 08:55:12 08:58:15 19° 60° (ENE) 09:01:21 437.425
CUBEBUG 2 22 Sep 08:58:31 09:03:14 86° 106° (ESE) 09:07:58 437.445
NUDT-PHONESAT 22 Sep 09:00:12 09:02:22 15° 298° (WNW) 09:04:31 437.300
LilacSat-2 22 Sep 09:02:17 09:03:29 11° 301° (WNW) 09:04:41 437.200
UWE-3 22 Sep 09:08:58 09:13:38 68° 102° (ESE) 09:18:17 435.000/436.395/437.385
TIGRISAT 22 Sep 09:18:34 09:22:15 27° 65° (ENE) 09:26:01 435.000
XW-2A 22 Sep 09:39:08 09:42:18 34° 290° (WNW) 09:45:26 145.665 - 145.685
CUTE-I 22 Sep 09:48:57 09:51:24 13° 308° (NW) 09:53:51 437.470
SEEDS 22 Sep 09:58:30 10:01:48 23° 296° (WNW) 10:05:05 437.485
AO-73 22 Sep 09:58:34 10:03:11 79° 284° (WNW) 10:07:43 145.935
Oscar 11 22 Sep 09:59:38 10:04:02 78° 104° (ESE) 10:08:21 .
ZACube-1 22 Sep 10:00:26 10:05:01 69° 287° (WNW) 10:09:34 437.345
FO-29 22 Sep 10:07:17 10:12:39 42° 262° (W) 10:17:39 435.910
PRISM 22 Sep 10:21:33 10:25:38 70° 73° (ENE) 10:29:43 437.425
Max Valier Satellite 22 Sep 10:23:23 10:26:32 25° 94° (E) 10:29:40 145.860
AAUSAT CUBESAT 2 22 Sep 10:26:02 10:29:22 24° 295° (WNW) 10:32:39 437.432
UNISAT 6 22 Sep 10:30:16 10:34:32 57° 260° (W) 10:38:57 437.425
DELFI C3 22 Sep 10:33:38 10:37:23 42° 98° (E) 10:41:07 145.870
HO-68 22 Sep 10:34:07 10:39:49 26° 307° (NW) 10:45:32 435.675
CUBEBUG 2 22 Sep 10:36:37 10:39:12 15° 302° (WNW) 10:41:50 437.445
UWE-3 22 Sep 10:46:28 10:49:35 18° 300° (WNW) 10:52:44 435.000/436.395/437.385
RS-15 22 Sep 10:49:11 11:00:21 37° 357° (N) 11:11:11 29.354- 29.394
TIGRISAT 22 Sep 10:54:49 10:58:49 36° 264° (W) 11:02:56 435.000
NANOSAT C BR1 22 Sep 10:58:30 11:01:10 17° 60° (ENE) 11:03:53 145.865
O/OREOS (USA 219) 22 Sep 11:09:29 11:12:22 16° 44° (NE) 11:15:13 437.305
YUBILEINY 22 Sep 11:15:49 11:20:50 17° 73° (ENE) 11:25:52 435.215
DUCHIFAT 1 22 Sep 11:26:49 11:30:19 27° 65° (ENE) 11:33:52 145.980
EO-88 22 Sep 11:27:17 11:30:58 80° 283° (WNW) 11:34:37 145.990 - 145.960
AIST 2D 22 Sep 11:30:46 11:34:20 82° 75° (ENE) 11:37:55 435.315
AO-73 22 Sep 11:36:49 11:38:38 12° 304° (NW) 11:40:26 145.935
Oscar 11 22 Sep 11:37:15 11:39:35 14° 301° (WNW) 11:41:55 .
POLYITAN 1 22 Sep 11:37:39 11:41:37 41° 69° (ENE) 11:45:38 437.675
ZACube-1 22 Sep 11:39:20 11:40:26 11° 305° (NW) 11:41:32 437.345
EO-79 22 Sep 11:42:20 11:46:21 46° 70° (ENE) 11:50:25 145.935-145.965
ESTCUBE 1 22 Sep 11:53:49 11:57:21 22° 92° (E) 12:00:50 437.505/2401.250
QB50P2 22 Sep 11:55:12 11:59:23 69° 73° (ENE) 12:03:37 145.880/145.840
Oscar 19 22 Sep 11:57:02 11:59:27 13° 53° (NE) 12:01:52 437.125/150
Max Valier Satellite 22 Sep 11:57:05 12:00:22 29° 292° (WNW) 12:03:37 145.860
PRISM 22 Sep 11:59:34 12:01:22 13° 271° (W) 12:03:11 437.425
M-CUBED/EXP-1 PRIME 22 Sep 12:08:25 12:12:33 50° 66° (ENE) 12:16:23 437.505
BUGSAT 1 22 Sep 12:08:41 12:11:43 21° 63° (ENE) 12:14:48 437.445
DELFI C3 22 Sep 12:09:03 12:11:53 19° 297° (WNW) 12:14:42 145.870
LO-87 22 Sep 12:28:28 12:32:05 74° 103° (ESE) 12:35:41 145.935 - 145.965
VELOX 1 22 Sep 12:31:56 12:32:20 10° 86° (E) 12:32:44 145.980
NANOSAT C BR1 22 Sep 12:32:18 12:36:26 61° 259° (WSW) 12:40:38 145.865
SPROUT 22 Sep 12:40:22 12:43:15 17° 91° (E) 12:46:07 437.525
O/OREOS (USA 219) 22 Sep 12:47:50 12:52:28 89° 58° (ENE) 12:57:05 437.305
DUCHIFAT 1 22 Sep 13:02:04 13:05:52 34° 263° (W) 13:09:44 145.980
AO-7 22 Sep 13:04:27 13:09:40 19° 39° (NE) 13:14:52 .
RS-15 22 Sep 13:04:35 13:16:24 50° 30° (NNE) 13:27:37 29.354- 29.394
Gurwin Techsat 1B 22 Sep 13:06:47 13:11:27 33° 63° (ENE) 13:16:10 435.225
YUBILEINY 22 Sep 13:07:24 13:16:04 74° 94° (E) 13:24:44 435.215
POLYITAN 1 22 Sep 13:14:18 13:17:35 22° 267° (W) 13:20:53 437.675
EO-79 22 Sep 13:19:17 13:22:21 20° 268° (W) 13:25:27 145.935-145.965
ESTCUBE 1 22 Sep 13:30:03 13:34:22 46° 290° (WNW) 13:38:39 437.505/2401.250
Oscar 19 22 Sep 13:32:42 13:37:53 72° 72° (ENE) 13:43:05 437.125/150
QB50P2 22 Sep 13:33:32 13:35:39 13° 271° (W) 13:37:47 145.880/145.840
BUGSAT 1 22 Sep 13:43:00 13:46:50 42° 261° (W) 13:50:43 437.445
DX 1 22 Sep 13:43:29 13:46:07 16° 90° (E) 13:48:45 434.975-435.025
M-CUBED/EXP-1 PRIME 22 Sep 13:44:07 13:47:08 19° 261° (W) 13:50:02 437.505
NO-84 22 Sep 13:50:04 13:53:08 23° 135° (SE) 13:56:00 435.350 FM
LO-87 22 Sep 14:03:55 14:04:58 11° 300° (WNW) 14:06:00 145.935 - 145.965
VELOX 1 22 Sep 14:05:03 14:09:28 86° 104° (ESE) 14:13:52 145.980
50 SAT 22 Sep 14:10:40 14:13:42 33° 98° (E) 14:16:43 437.505
SPROUT 22 Sep 14:15:16 14:19:28 54° 289° (WNW) 14:23:39 437.525
O/OREOS (USA 219) 22 Sep 14:29:25 14:31:09 12° 263° (W) 14:32:54 437.305
ITAMSAT 1 22 Sep 14:35:52 14:39:56 24° 60° (ENE) 14:44:00 435.822/435.867
SO-50 22 Sep 14:44:32 14:48:33 33° 118° (ESE) 14:52:36 436.795
Gurwin Techsat 1B 22 Sep 14:46:17 14:51:18 42° 262° (W) 14:56:21 435.225
AO-7 22 Sep 14:52:43 15:00:49 59° 62° (ENE) 15:08:55 .
YUBILEINY 22 Sep 15:06:22 15:13:45 30° 298° (WNW) 15:21:11 435.215
UKube-1 22 Sep 15:14:16 15:18:37 82° 107° (ESE) 15:22:54 .
Oscar 19 22 Sep 15:14:16 15:17:45 18° 271° (W) 15:21:14 437.125/150
RS-15 22 Sep 15:17:49 15:29:49 75° 239° (WSW) 15:41:10 29.354- 29.394
DX 1 22 Sep 15:18:25 15:22:43 61° 288° (WNW) 15:26:59 434.975-435.025
NO-84 22 Sep 15:26:40 15:30:20 67° 332° (NNW) 15:33:41 435.350 FM
BEESAT 22 Sep 15:34:24 15:37:55 20° 91° (E) 15:41:25 436.000
PCSat 22 Sep 15:37:33 15:42:49 55° 118° (ESE) 15:48:08 145.827
VELOX 1 22 Sep 15:43:09 15:45:18 13° 303° (WNW) 15:47:25 145.980
50 SAT 22 Sep 15:43:42 15:45:59 18° 295° (WNW) 15:48:16 437.505
ITAMSAT 1 22 Sep 16:13:57 16:19:01 58° 258° (WSW) 16:24:09 435.822/435.867
MOZHAYETS 4 22 Sep 16:16:52 16:21:23 49° 99° (E) 16:25:52
SO-50 22 Sep 16:24:40 16:28:56 41° 318° (NW) 16:33:14 436.795
ITUPSAT 1 22 Sep 16:33:39 16:38:28 66° 102° (ESE) 16:43:15 437.325
CUBESAT XI-V 22 Sep 16:40:20 16:43:49 21° 91° (E) 16:47:15 437.345
AO-7 22 Sep 16:46:18 16:53:55 39° 263° (W) 17:01:35 .
UKube-1 22 Sep 16:51:51 16:54:01 14° 303° (WNW) 16:56:12 .
DOVE 4 22 Sep 16:57:06 17:01:11 38° 69° (ENE) 17:05:07 437.250
NO-84 22 Sep 17:05:06 17:08:06 27° 351° (N) 17:10:54 435.350 FM
BEESAT 22 Sep 17:11:20 17:16:03 57° 290° (WNW) 17:20:44 436.000
PCSat 22 Sep 17:21:37 17:26:30 33° 318° (NW) 17:31:24 145.827
XW-2D 22 Sep 17:27:23 17:30:27 23° 65° (ENE) 17:33:31 145.860 - 145.880
RS-15 22 Sep 17:32:07 17:40:02 21° 263° (W) 17:47:43 29.354- 29.394
HO-68 22 Sep 17:32:43 17:37:56 23° 50° (NE) 17:43:11 435.675
XW-2B 22 Sep 17:39:22 17:42:42 29° 68° (ENE) 17:46:03 145.730 - 145.750
XW-2F 22 Sep 17:40:24 17:43:42 28° 67° (ENE) 17:47:02 145.980 - 146.000
CUTE-I 22 Sep 17:53:03 17:58:04 44° 67° (ENE) 18:03:05 437.470
MOZHAYETS 4 22 Sep 17:54:35 17:58:16 23° 298° (WNW) 18:01:54
XW-2C 22 Sep 18:00:11 18:03:54 48° 71° (ENE) 18:07:38 145.795 - 145.815
NUDT-PHONESAT 22 Sep 18:07:30 18:11:03 42° 71° (ENE) 18:14:38 437.300
SO-50 22 Sep 18:08:10 18:10:35 14° 341° (NNW) 18:12:59 436.795
CUTE 1.7 + AOD 2 22 Sep 18:08:56 18:11:37 16° 60° (ENE) 18:14:19 437.475
LilacSat-2 22 Sep 18:10:51 18:14:42 68° 74° (ENE) 18:18:35 437.200
ITUPSAT 1 22 Sep 18:12:25 18:15:49 20° 301° (WNW) 18:19:13 437.325
CUBESAT XI-V 22 Sep 18:16:58 18:21:29 51° 289° (WNW) 18:25:57 437.345
KKS-1 22 Sep 18:22:36 18:27:04 70° 103° (ESE) 18:31:29 437.445
CUBEBUG 2 22 Sep 18:25:58 18:28:20 15° 58° (ENE) 18:30:45 437.445
KAITUO 1B 22 Sep 18:33:46 18:37:35 87° 76° (ENE) 18:41:25 145.475/437.950
DOVE 4 22 Sep 18:35:26 18:39:00 24° 266° (W) 18:42:28 437.250
UWE-3 22 Sep 18:36:22 18:37:55 12° 56° (NE) 18:39:28 435.000/436.395/437.385
XW-2A 22 Sep 18:42:47 18:44:13 12° 61° (ENE) 18:45:39 145.665 - 145.685
NO-84 22 Sep 18:43:12 18:46:07 30° 13° (NNE) 18:48:51 435.350 FM
STARS 22 Sep 18:50:23 18:54:44 58° 102° (ESE) 18:59:05 437.465
XW-2D 22 Sep 19:00:57 19:04:28 34° 263° (W) 19:08:01 145.860 - 145.880
PCSat 22 Sep 19:09:09 19:11:38 13° 343° (NNW) 19:14:07 145.827
XW-2B 22 Sep 19:13:35 19:16:51 26° 265° (W) 19:20:09 145.730 - 145.750
XW-2F 22 Sep 19:14:30 19:17:47 27° 265° (W) 19:21:06 145.980 - 146.000
SEEDS 22 Sep 19:17:08 19:21:12 45° 70° (ENE) 19:25:15 437.485
HO-68 22 Sep 19:17:36 19:24:45 86° 71° (ENE) 19:31:58 435.675
STRAND 1 22 Sep 19:19:21 19:21:37 13° 86° (E) 19:23:53 437.568
AO-73 22 Sep 19:23:02 19:25:50 17° 60° (ENE) 19:28:42 145.935
Oscar 11 22 Sep 19:24:28 19:26:28 13° 57° (ENE) 19:28:27 .
ZACube-1 22 Sep 19:24:49 19:27:55 19° 61° (ENE) 19:31:04 437.345
CUTE-I 22 Sep 19:33:38 19:38:16 30° 265° (W) 19:42:55 437.470
XW-2C 22 Sep 19:35:56 19:38:21 16° 270° (W) 19:40:47 145.795 - 145.815
NUDT-PHONESAT 22 Sep 19:42:34 19:45:08 17° 269° (W) 19:47:42 437.300
CUTE 1.7 + AOD 2 22 Sep 19:42:43 19:46:59 65° 259° (W) 19:51:16 437.475
AAUSAT CUBESAT 2 22 Sep 19:43:30 19:47:23 40° 70° (ENE) 19:51:17 437.432
LilacSat-2 22 Sep 19:47:59 19:49:26 12° 272° (W) 19:50:52 437.200
SO-50 22 Sep 19:51:54 19:53:01 11° 6° (N) 19:54:08 436.795
Tancredo 1 22 Sep 19:58:14 19:59:22 12° 138° (SE) 20:00:31 437.200
CUBEBUG 2 22 Sep 20:00:06 20:04:21 76° 257° (WSW) 20:08:46 437.445
KKS-1 22 Sep 20:00:21 20:03:06 16° 301° (WNW) 20:05:52 437.445
UWE-3 22 Sep 20:09:16 20:13:35 81° 74° (ENE) 20:18:03 435.000/436.395/437.385
XW-2A 22 Sep 20:13:07 20:16:29 57° 259° (W) 20:19:54 145.665 - 145.685
NO-84 22 Sep 20:20:38 20:23:43 70° 214° (SSW) 20:26:36 435.350 FM
BEESAT 3 22 Sep 20:27:21 20:31:04 37° 120° (ESE) 20:34:50 437.485
STARS 22 Sep 20:27:36 20:30:41 19° 300° (WNW) 20:33:45 437.465
BEESAT 2 22 Sep 20:33:37 20:36:01 15° 112° (ESE) 20:38:27 435.950
SEEDS 22 Sep 20:53:56 20:57:05 20° 268° (W) 21:00:16 437.485
PCSat 22 Sep 20:55:52 20:57:36 11° 10° (N) 20:59:21 145.827
STRAND 1 22 Sep 20:56:23 21:01:34 86° 103° (ESE) 21:06:44 437.568
AO-73 22 Sep 20:57:15 21:01:34 66° 259° (WSW) 21:06:01 145.935
Oscar 11 22 Sep 20:57:34 21:01:57 88° 262° (W) 21:06:20 .
ZACube-1 22 Sep 20:59:31 21:03:47 56° 260° (W) 21:08:11 437.345
Max Valier Satellite 22 Sep 21:05:57 21:08:45 20° 65° (ENE) 21:11:34 145.860
HO-68 22 Sep 21:08:10 21:13:22 21° 271° (W) 21:18:35 435.675
FO-29 22 Sep 21:11:31 21:15:17 19° 91° (E) 21:19:15 435.910
YUBILEINY 22 Sep 21:18:41 21:21:26 12° 42° (NE) 21:24:12 435.215
AAUSAT CUBESAT 2 22 Sep 21:19:43 21:22:59 22° 267° (W) 21:26:16 437.432
DELFI C3 22 Sep 21:22:09 21:25:52 40° 70° (ENE) 21:29:36 145.870
ISS 22 Sep 21:29:20 21:31:39 18° 139° (SE) 21:33:58 437.550
Tancredo 1 22 Sep 21:30:46 21:33:28 72° 154° (SSE) 21:36:10 437.200
SO-50 22 Sep 21:31:41 21:35:11 21° 30° (NNE) 21:38:43 436.795
UWE-3 22 Sep 21:49:02 21:50:41 12° 274° (W) 21:52:21 435.000/436.395/437.385
AO-85 22 Sep 21:50:19 21:54:12 83° 127° (SE) 21:58:12 145.980
BEESAT 3 22 Sep 22:05:02 22:08:41 32° 319° (NW) 22:12:21 437.485
EO-88 22 Sep 22:07:57 22:11:37 75° 75° (ENE) 22:15:19 145.990 - 145.960
BEESAT 2 22 Sep 22:09:15 22:13:16 69° 310° (NW) 22:17:21 435.950
nSIGHT-1 22 Sep 22:09:50 22:12:52 38° 147° (SSE) 22:15:56 .
UNISAT 6 22 Sep 22:18:07 22:21:55 24° 93° (E) 22:25:43 437.425
STRAND 1 22 Sep 22:36:52 22:40:06 17° 304° (NW) 22:43:19 437.568
Oscar 11 22 Sep 22:38:02 22:38:44 10° 274° (W) 22:39:27 .
PCSat 22 Sep 22:38:37 22:43:03 25° 35° (NE) 22:47:28 145.827
Max Valier Satellite 22 Sep 22:38:55 22:42:22 36° 263° (W) 22:45:51 145.860
TIGRISAT 22 Sep 22:41:47 22:46:06 36° 96° (E) 22:50:26 435.000
FO-29 22 Sep 22:55:32 23:00:53 72° 288° (WNW) 23:06:46 435.910
ESTCUBE 1 22 Sep 22:56:35 23:00:36 32° 66° (ENE) 23:04:38 437.505/2401.250
DELFI C3 22 Sep 22:57:53 23:00:48 19° 268° (W) 23:03:43 145.870
ISS 22 Sep 23:04:27 23:07:45 84° 152° (SSE) 23:11:03 437.550
Tancredo 1 22 Sep 23:05:31 23:08:07 41° 355° (N) 23:10:43 437.200
LO-87 22 Sep 23:07:43 23:11:08 50° 72° (ENE) 23:14:35 145.935 - 145.965
SO-50 22 Sep 23:11:40 23:16:17 88° 53° (NE) 23:20:55 436.795
YUBILEINY 22 Sep 23:12:50 23:21:09 45° 70° (ENE) 23:29:26 435.215
VELOX 1 22 Sep 23:31:16 23:34:00 16° 59° (ENE) 23:36:46 145.980
AO-85 22 Sep 23:32:19 23:35:08 19° 329° (NNW) 23:38:02 145.980
PRISM 22 Sep 23:34:02 23:38:06 67° 102° (ESE) 23:42:08 437.425
SPROUT 22 Sep 23:37:05 23:40:21 22° 63° (ENE) 23:43:37 437.525
nSIGHT-1 22 Sep 23:45:55 23:49:09 60° 347° (NNW) 23:52:23 .
BEESAT 3 22 Sep 23:46:34 23:47:27 11° 342° (NNW) 23:48:20 437.485
BEESAT 2 22 Sep 23:49:11 23:51:45 16° 332° (NNW) 23:54:20 435.950
UNISAT 6 22 Sep 23:54:22 23:58:49 45° 290° (WNW) 00:03:17 437.425
NANOSAT C BR1 23 Sep 00:13:33 00:16:19 17° 91° (E) 00:19:04 145.865
TIGRISAT 23 Sep 00:18:37 00:22:41 30° 295° (WNW) 00:26:46 435.000
PCSat 23 Sep 00:21:39 00:27:07 84° 238° (WSW) 00:32:32 145.827
AIST 2D 23 Sep 00:25:02 00:28:33 58° 100° (E) 00:32:01 435.315
ESTCUBE 1 23 Sep 00:33:17 00:37:22 32° 264° (W) 00:41:27 437.505/2401.250
UKube-1 23 Sep 00:38:19 00:40:46 15° 58° (ENE) 00:43:14 .
Tancredo 1 23 Sep 00:40:14 00:42:55 55° 15° (NNE) 00:45:34 437.200
ISS 23 Sep 00:41:12 00:44:24 47° 357° (N) 00:47:37 437.550
DUCHIFAT 1 23 Sep 00:41:52 00:45:32 28° 95° (E) 00:49:12 145.980
DX 1 23 Sep 00:42:12 00:45:37 23° 63° (ENE) 00:49:03 434.975-435.025
FO-29 23 Sep 00:42:46 00:45:13 13° 307° (NW) 00:47:45 435.910
LO-87 23 Sep 00:43:10 00:44:51 13° 270° (W) 00:46:34 145.935 - 145.965
50 SAT 23 Sep 00:44:12 00:46:48 22° 66° (ENE) 00:49:25 437.505
